| time (UTC) | temp F | wind direction | speed knots | gust knots | rain 1hr in | rain 24hr in | rain mn in | humidity % | barometer mb |
| 20260904103044 | 57 | 0 | 0.0 | 0.0 | 0.00 | 0.00 | 0.00 | 97 | 1011.1 |
| 20260904101551 | 57 | 0 | 0.0 | 0.0 | 0.00 | 0.00 | 0.00 | 97 | 1011.1 |
| 20260904100041 | 56 | 0 | 0.0 | 0.0 | 0.00 | 0.00 | 0.00 | 97 | 1011.0 |
| 20260904094542 | 56 | 0 | 0.0 | 0.0 | 0.00 | 0.00 | 0.00 | 96 | 1010.8 |
| 20260904093041 | 57 | 0 | 0.0 | 0.0 | 0.00 | 0.00 | 0.00 | 97 | 1011.0 |
| 20260904091541 | 56 | 0 | 0.0 | 0.0 | 0.00 | 0.00 | 0.00 | 97 | 1010.9 |
| 20260904090044 | 56 | 0 | 0.0 | 0.0 | 0.00 | 0.00 | 0.00 | 96 | 1011.0 |
| 20260904084542 | 56 | 0 | 0.0 | 0.0 | 0.00 | 0.00 | 0.00 | 96 | 1011.1 |
| 20260904083052 | 56 | 0 | 0.0 | 1.7 | 0.00 | 0.00 | 0.00 | 96 | 1011.0 |
| 20260904081543 | 56 | 0 | 0.0 | 0.0 | 0.00 | 0.00 | 0.00 | 96 | 1010.8 |
| 20260904080042 | 57 | 0 | 0.0 | 0.0 | 0.00 | 0.00 | 0.00 | 96 | 1010.7 |
| 20260904074553 | 57 | 0 | 0.0 | 0.0 | 0.00 | 0.00 | 0.00 | 96 | 1010.7 |
| 20260904073048 | 57 | 0 | 0.0 | 0.0 | 0.00 | 0.00 | 0.00 | 96 | 1010.9 |
| 20260904071542 | 57 | 0 | 0.0 | 0.0 | 0.00 | 0.00 | 0.00 | 96 | 1011.0 |
| 20260904070041 | 58 | 0 | 0.0 | 0.0 | 0.00 | 0.00 | 0.00 | 96 | 1011.2 |
| 20260904064540 | 58 | 0 | 0.0 | 0.0 | 0.00 | 0.01 | 0.00 | 96 | 1011.2 |
| 20260904064511 | 59 | 53 | 0.0 | 0.0 | 0.00 | 0.03 | 0.00 | 96 | 1011.2 |
| 20260904063058 | 58 | 0 | 0.0 | 0.0 | 0.00 | 0.01 | 0.00 | 96 | 1011.2 |
| 20260904061541 | 59 | 0 | 0.0 | 0.0 | 0.00 | 0.01 | 0.00 | 96 | 1011.4 |
| 20260904060106 | 59 | 0 | 0.0 | 0.0 | 0.00 | 0.01 | 0.00 | 96 | 1011.4 |
| 20260904054542 | 59 | 0 | 0.0 | 0.0 | 0.00 | 0.04 | 0.00 | 96 | 1011.6 |
| 20260904053044 | 60 | 0 | 0.0 | 0.0 | 0.00 | 0.04 | 0.00 | 96 | 1011.8 |
| 20260904051546 | 60 | 0 | 0.0 | 0.0 | 0.00 | 0.04 | 0.00 | 96 | 1012.0 |
| 20260904050044 | 60 | 0 | 0.0 | 0.0 | 0.00 | 0.04 | 0.00 | 96 | 1012.1 |
| 20260904044549 | 61 | 0 | 0.0 | 0.0 | 0.00 | 0.04 | 0.00 | 96 | 1012.1 |
| 20260904043047 | 61 | 0 | 0.0 | 0.0 | 0.00 | 0.04 | 0.00 | 95 | 1012.1 |
| 20260904041543 | 61 | 0 | 0.0 | 0.0 | 0.00 | 0.04 | 0.00 | 95 | 1012.3 |
| 20260904040043 | 62 | 0 | 0.0 | 0.0 | 0.00 | 0.04 | 0.00 | 96 | 1012.2 |
| 20260904034557 | 62 | 0 | 0.0 | 0.0 | 0.00 | 0.04 | 0.04 | 95 | 1012.3 |
| 20260904033049 | 63 | 0 | 0.0 | 0.9 | 0.00 | 0.04 | 0.04 | 95 | 1012.4 |
| 20260904031544 | 63 | 0 | 0.0 | 0.0 | 0.00 | 0.04 | 0.04 | 95 | 1012.4 |
| 20260904030042 | 63 | 0 | 0.0 | 0.0 | 0.00 | 0.04 | 0.04 | 95 | 1012.5 |
| 20260904024542 | 64 | 0 | 0.0 | 0.0 | 0.00 | 0.04 | 0.04 | 95 | 1012.7 |
| 20260904023041 | 64 | 0 | 0.0 | 0.0 | 0.00 | 0.04 | 0.04 | 95 | 1012.7 |
| 20260904021549 | 64 | 0 | 0.0 | 0.9 | 0.00 | 0.04 | 0.04 | 95 | 1012.4 |
| 20260904020044 | 64 | 0 | 0.0 | 0.0 | 0.00 | 0.04 | 0.04 | 95 | 1012.7 |
| 20260904014547 | 65 | 0 | 0.0 | 0.0 | 0.00 | 0.04 | 0.04 | 95 | 1012.4 |
| 20260904013042 | 65 | 0 | 0.0 | 0.0 | 0.00 | 0.04 | 0.04 | 94 | 1012.7 |
| 20260904011548 | 65 | 0 | 0.0 | 0.0 | 0.00 | 0.04 | 0.04 | 94 | 1012.5 |
| 20260904010051 | 66 | 0 | 0.0 | 0.0 | 0.00 | 0.04 | 0.04 | 94 | 1012.4 |
| 20260904004559 | 66 | 0 | 0.0 | 0.0 | 0.00 | 0.04 | 0.04 | 93 | 1012.3 |
| 20260904003045 | 67 | 0 | 0.0 | 0.0 | 0.00 | 0.04 | 0.04 | 93 | 1012.0 |
| 20260904001541 | 67 | 0 | 0.0 | 0.0 | 0.00 | 0.04 | 0.04 | 92 | 1011.8 |
| 20260904000103 | 68 | 0 | 0.0 | 0.0 | 0.00 | 0.04 | 0.04 | 92 | 1011.7 |
| 20260903234549 | 69 | 0 | 0.0 | 0.0 | 0.00 | 0.04 | 0.04 | 91 | 1011.4 |
| 20260903233047 | 69 | 0 | 0.0 | 0.0 | 0.00 | 0.04 | 0.04 | 91 | 1011.4 |
| 20260903231542 | 70 | 0 | 0.0 | 0.9 | 0.00 | 0.04 | 0.04 | 90 | 1011.4 |
| 20260903230046 | 71 | 0 | 0.0 | 0.0 | 0.00 | 0.04 | 0.04 | 89 | 1011.5 |
| 20260903224543 | 71 | 0 | 0.0 | 1.7 | 0.00 | 0.04 | 0.04 | 88 | 1011.4 |
| 20260903223043 | 72 | 0 | 0.0 | 0.0 | 0.00 | 0.04 | 0.04 | 87 | 1011.5 |
| 20260903221930 | 73 | 53 | 0.0 | 0.0 | 0.00 | 0.03 | 0.04 | 86 | 1011.5 |
| 20260903221543 | 72 | 0 | 0.0 | 1.7 | 0.00 | 0.04 | 0.04 | 85 | 1011.4 |
| 20260903220100 | 72 | 124 | 0.0 | 2.6 | 0.00 | 0.04 | 0.04 | 86 | 1011.9 |
| 20260903214543 | 73 | 0 | 0.0 | 2.6 | 0.00 | 0.04 | 0.04 | 85 | 1011.9 |
| 20260903213042 | 74 | 206 | 0.0 | 3.5 | 0.00 | 0.04 | 0.04 | 82 | 1011.8 |
| 20260903211611 | 75 | 0 | 0.9 | 3.5 | 0.00 | 0.04 | 0.04 | 80 | 1011.8 |
| 20260903210045 | 76 | 337 | 0.0 | 3.5 | 0.00 | 0.04 | 0.04 | 79 | 1011.7 |
| 20260903204542 | 77 | 67 | 0.9 | 4.3 | 0.00 | 0.04 | 0.04 | 76 | 1011.8 |
| 20260903203043 | 77 | 180 | 0.0 | 4.3 | 0.00 | 0.04 | 0.04 | 76 | 1011.9 |
| 20260903201542 | 76 | 0 | 0.0 | 2.6 | 0.00 | 0.04 | 0.04 | 76 | 1012.0 |
| 20260903200048 | 77 | 109 | 0.9 | 2.6 | 0.00 | 0.04 | 0.04 | 75 | 1012.1 |
| 20260903194546 | 77 | 138 | 0.0 | 3.5 | 0.00 | 0.04 | 0.04 | 76 | 1012.2 |
| 20260903193043 | 77 | 213 | 0.0 | 4.3 | 0.00 | 0.04 | 0.04 | 75 | 1012.3 |
| 20260903191542 | 77 | 0 | 0.0 | 2.6 | 0.00 | 0.04 | 0.04 | 78 | 1012.4 |
| 20260903190045 | 76 | 167 | 0.9 | 3.5 | 0.00 | 0.04 | 0.04 | 75 | 1012.4 |
| 20260903184542 | 76 | 0 | 0.9 | 4.3 | 0.00 | 0.04 | 0.04 | 77 | 1012.4 |
| 20260903183042 | 75 | 22 | 0.0 | 6.1 | 0.00 | 0.04 | 0.04 | 78 | 1012.7 |
| 20260903181545 | 73 | 0 | 0.9 | 4.3 | 0.00 | 0.04 | 0.04 | 82 | 1012.9 |
| 20260903180044 | 72 | 249 | 0.9 | 4.3 | 0.00 | 0.04 | 0.04 | 85 | 1013.1 |
| 20260903174600 | 70 | 0 | 0.0 | 6.1 | 0.00 | 0.04 | 0.04 | 87 | 1013.2 |
| 20260903173042 | 70 | 0 | 0.0 | 1.7 | 0.00 | 0.04 | 0.04 | 86 | 1013.4 |
| 20260903171548 | 69 | 188 | 0.0 | 3.5 | 0.00 | 0.04 | 0.04 | 88 | 1013.6 |
| 20260903170105 | 68 | 0 | 0.0 | 3.5 | 0.00 | 0.04 | 0.04 | 88 | 1013.5 |
| 20260903164550 | 67 | 0 | 0.0 | 3.5 | 0.00 | 0.04 | 0.04 | 87 | 1013.6 |
| 20260903163042 | 67 | 0 | 0.0 | 0.9 | 0.00 | 0.04 | 0.04 | 88 | 1013.5 |
| 20260903161543 | 67 | 155 | 0.9 | 4.3 | 0.00 | 0.04 | 0.04 | 88 | 1013.6 |
| 20260903160041 | 66 | 0 | 0.0 | 0.9 | 0.00 | 0.04 | 0.04 | 90 | 1013.9 |
| 20260903154546 | 66 | 0 | 0.0 | 2.6 | 0.00 | 0.04 | 0.04 | 90 | 1014.0 |
| 20260903153050 | 65 | 0 | 0.0 | 2.6 | 0.00 | 0.04 | 0.04 | 92 | 1014.1 |
| 20260903151551 | 64 | 0 | 0.0 | 0.0 | 0.00 | 0.04 | 0.04 | 93 | 1014.5 |
| 20260903150044 | 64 | 0 | 0.0 | 0.0 | 0.00 | 0.04 | 0.04 | 92 | 1014.7 |
| 20260903144546 | 64 | 0 | 0.0 | 0.9 | 0.00 | 0.04 | 0.04 | 93 | 1014.6 |
| 20260903143044 | 63 | 0 | 0.0 | 0.9 | 0.00 | 0.04 | 0.04 | 93 | 1014.7 |
| 20260903141543 | 63 | 0 | 0.0 | 0.0 | 0.00 | 0.04 | 0.04 | 93 | 1015.1 |
| 20260903140639 | 63 | 95 | 0.0 | 0.0 | 0.00 | 0.03 | 0.04 | 93 | 1015.0 |
| 20260903140120 | 63 | 95 | 0.0 | 0.0 | 0.00 | 0.03 | 0.04 | 93 | 1015.0 |
| 20260903140043 | 63 | 0 | 0.0 | 0.9 | 0.00 | 0.04 | 0.04 | 93 | 1015.0 |
| 20260903135607 | 63 | 95 | 0.0 | 0.0 | 0.00 | 0.03 | 0.04 | 93 | 1014.9 |
| 20260903135059 | 63 | 95 | 0.0 | 0.0 | 0.00 | 0.03 | 0.04 | 93 | 1014.9 |
| 20260903134604 | 63 | 174 | 0.0 | 0.0 | 0.00 | 0.03 | 0.04 | 93 | 1014.9 |
| 20260903134544 | 63 | 0 | 0.0 | 1.7 | 0.00 | 0.04 | 0.04 | 93 | 1014.9 |
| 20260903134050 | 63 | 174 | 0.0 | 0.0 | 0.00 | 0.03 | 0.04 | 92 | 1014.8 |
| 20260903133050 | 62 | 0 | 0.0 | 0.9 | 0.00 | 0.04 | 0.04 | 93 | 1014.8 |
| 20260903131553 | 62 | 0 | 0.0 | 2.6 | 0.00 | 0.04 | 0.04 | 93 | 1014.7 |
| 20260903130044 | 62 | 0 | 0.0 | 4.3 | 0.00 | 0.04 | 0.04 | 93 | 1014.9 |
| 20260903124543 | 61 | 91 | 0.9 | 3.5 | 0.00 | 0.04 | 0.04 | 94 | 1014.9 |
| 20260903123044 | 61 | 0 | 0.0 | 2.6 | 0.00 | 0.04 | 0.04 | 95 | 1014.9 |
| 20260903121546 | 61 | 0 | 0.0 | 0.9 | 0.00 | 0.04 | 0.04 | 95 | 1015.0 |
| 20260903120043 | 60 | 0 | 0.0 | 1.7 | 0.00 | 0.04 | 0.04 | 95 | 1015.1 |
| 20260903114542 | 60 | 0 | 0.0 | 1.7 | 0.00 | 0.04 | 0.04 | 95 | 1015.2 |
| 20260903113042 | 60 | 170 | 0.0 | 2.6 | 0.00 | 0.04 | 0.04 | 95 | 1015.3 |
| 20260903111615 | 60 | 0 | 0.0 | 1.7 | 0.00 | 0.04 | 0.04 | 95 | 1015.3 |
| 20260903110043 | 60 | 0 | 0.0 | 1.7 | 0.00 | 0.04 | 0.04 | 95 | 1015.2 |
| 20260903104557 | 60 | 0 | 0.0 | 4.3 | 0.00 | 0.04 | 0.04 | 95 | 1015.0 |